Location: Poprad
(49.0500°N, 20.3000°E)
Time: 18:29:20
(UTC+02:00)

ISS - Pass Details

Date: 28 May 2023
Orbit: 414 x 422 km, 51.6° (Epoch: 21 September)

Event Time Altitude Azimuth Distance (km) Brightness Sun altitude
Rises 21:13:19 0° 289° (WNW) 2,421 1.5 -6.3°
Reaches altitude 10° 21:15:32 10° 280° (W) 1,555 0.1 -6.5°
Maximum altitude 21:18:43 33° 214° (SW) 760 -2.5 -6.9°
Drops below altitude 10° 21:21:55 10° 149° (SSE) 1,558 -1.5 -7.3°
Enters shadow 21:22:06 - 148° (SSE) 1,622 -1.4 -7.3°
